Weather Roundup
Issued by NWS Chicago, IL

Home | Current Version | Previous Version | Text Only | Print | Product List | Glossary On
Versions: 1 2 3 4 5 6 7 8 9 10 11 12 13 14 15 16 17 18 19 20 21 22 23 24 25 26 27 28 29 30 31 32 33 34 35 36 37 38 39 40 41 42 43 44 45 46 47 48 49 50
000
NZUS59 KLOT 012021
HRRLOT

CHICAGO AREA WEATHER ROUNDUP
NATIONAL WEATHER SERVICE CHICAGO/ROMEOVILLE IL
300 PM CDT TUE SEP 01 2015

NOTE: "FAIR" INDICATES FEW OR NO CLOUDS BELOW 12,000 FEET WITH NO
SIGNIFICANT WEATHER AND/OR OBSTRUCTIONS TO VISIBILITY.

* THESE STATIONS ARE NOT UNDER NWS QUALITY CONTROL. THEY ALSO MAY NOT
  REPORT WEATHER SUCH AS PRECIPITATION OR FOG.

ILZ005-006-012>014-019>023-012100-
NORTHEAST ILLINOIS

CITY           SKY/WX    TMP DP  RH WIND       PRES   REMARKS
OHARE          PTSUNNY   88  72  58 SW7G18    30.00F HX  94
MIDWAY         MOSUNNY   88  71  57 SW12      30.01F HX  94
AURORA         MOSUNNY   87  75  67 S9        30.02F HX  96
LANSING*       SUNNY     85  71  62 SW9       30.03F HX  90
JOLIET*        SUNNY     88  73  61 S9        30.02F HX  95
WAUKEGAN       MOSUNNY   88  69  53 SW10      29.98F HX  92
DUPAGE AIRPORT MOSUNNY   87  73  62 S13       30.01F HX  94
WHEELING       MOSUNNY   91  67  44 SW12      30.00F HX  94
KANKAKEE*      SUNNY     86  74  66 SW7       30.04F HX  94
MORRIS*        SUNNY     86  75  70 SW10      30.01F HX  95
LEWIS AIRPORT* SUNNY     86  72  64 S9        30.02F HX  92
NORTHERLY IS     N/A     86  69  56 S13         N/A  HX  90
$$

WIZ051-052-058>065-066-070>072-012100-
SOUTHEAST WISCONSIN

CITY           SKY/WX    TMP DP  RH WIND       PRES   REMARKS
MILWAUKEE      PTSUNNY   88  68  51 SW14      29.97F HX  91
KENOSHA*       MOSUNNY   89  70  53 SW13      29.99F HX  94
RACINE*        MOSUNNY   84  70  62 S15       30.00F HX  88
BURLINGTON     SUNNY     86  68  54 S9        29.99F HX  90
WAUKESHA       MOSUNNY   84  66  54 SW14      30.00F HX  86
WEST BEND      MOSUNNY   88  64  45 S13       29.98F HX  89
$$

INZ001>003-010>013-019-020-012100-
NORTHWEST INDIANA

CITY           SKY/WX    TMP DP  RH WIND       PRES   REMARKS
GARY*          MOSUNNY   86  68  54 SW12      30.04F HX  89
MICHIGAN CITY* NOT AVBL
RENSSELAER*    NOT AVBL
VALPARAISO     MOSUNNY   85  68  56 SW10      30.05F HX  88
$$

LMZ740>746-012100-
SOUTHERN LAKE MICHIGAN

STATION/POSITION TIME  SKY/WX   TEMP WIND        PRES    VSBY
                                AIR  DIR/SP/G
                 (UTC)          (F)  (DEG/KT/KT) (MB)    (MI)
HARRISON CRIB    1900            78  180/ 17/ 20   N/A
BURNHAM HARBOR   2000            85  180/ 12/ 14   N/A
CALUMET HARBOR   2000            85  180/  7/ 13   N/A
BURNS HARBOR     1900            81  240/ 12/ 15 1017.6F
MICHIGAN CITY    1900            79  200/ 12/ 13   N/A
$$

ABBREVIATIONS USED IN REMARKS
   TC - TEMPERATURE IN CELSIUS
  WCI - WIND CHILL INDEX
   HX - HEAT INDEX
  VSB - VISIBILITY
$$


USA.gov is the U.S. government's official web portal to all federal, state and local government web resources and services.